Location: Newark
(5.8900°S, 42.6378°W)
Time: 15:10:46
(UTC+00:00)

Explorer 11/Cluster Stage 4 - All Passes

Search period start: 19 September 2019 00:00
Search period end: 29 September 2019 00:00
Orbit: 467 x 1260 km, 28.8° (Epoch: 19 September)

Date Brightness Start Highest point End Pass type
(mag) Time Alt. Az. Time Alt. Az. Time Alt. Az.
19 Sep - 08:21:55 10° N 08:23:47 13° NE 08:25:45 10° ENE visible
19 Sep - 10:07:31 10° WNW 10:11:50 90° ENE 10:17:15 10° ESE daylight
19 Sep - 11:56:44 10° WSW 12:00:54 24° SSW 12:05:51 10° SSE daylight
19 Sep - 13:48:53 10° SSW 13:51:11 12° S 13:53:36 10° SSE daylight
19 Sep - 15:40:05 10° S 15:42:18 11° S 15:44:35 10° SSE daylight
19 Sep - 17:27:42 10° SSW 17:33:22 20° SSE 17:39:06 10° ESE daylight
19 Sep - 19:15:46 10° SW 19:23:41 47° SSE 19:31:07 10° E daylight
19 Sep - 21:05:13 10° WSW 21:13:14 61° NNW 21:20:10 10° NE visible
19 Sep - 22:57:56 10° WNW 23:02:10 16° NW 23:06:01 10° N visible
20 Sep - 08:10:49 10° N 08:13:14 16° NE 08:15:51 10° ENE visible
20 Sep - 09:57:09 10° WNW 10:01:18 70° SSW 10:06:27 10° SE daylight
20 Sep - 11:46:50 10° WSW 11:50:27 19° SSW 11:54:38 10° SSE daylight
20 Sep - 13:40:09 10° S 13:40:47 10° S 13:41:26 10° S daylight
20 Sep - 15:29:42 10° S 15:31:52 11° S 15:34:07 10° SSE daylight
20 Sep - 17:16:49 10° SSW 17:22:45 22° SSE 17:28:52 10° ESE daylight
20 Sep - 19:04:51 10° SW 19:12:55 55° SSE 19:20:37 10° ENE daylight
20 Sep - 20:54:29 10° WSW 21:02:25 52° NNW 21:09:25 10° NE visible
20 Sep - 22:47:55 10° WNW 22:51:29 14° NNW 22:54:48 10° N visible
21 Sep - 07:59:53 10° NNW 08:02:41 20° NNE 08:05:44 10° E visible
21 Sep - 09:46:52 10° WNW 09:50:48 53° SSW 09:55:37 10° SE daylight
21 Sep - 11:37:06 10° SW 11:40:03 15° SSW 11:43:21 10° SSE daylight
21 Sep - 15:19:11 10° S 15:21:26 11° SSE 15:23:45 10° SSE daylight
21 Sep - 17:05:56 10° SSW 17:12:07 25° SSE 17:18:33 10° ESE daylight
21 Sep - 18:53:58 10° SW 19:02:08 63° SSE 19:10:02 10° ENE daylight
21 Sep - 20:43:48 10° WSW 20:51:35 45° NNW 20:58:37 10° NE daylight
21 Sep - 22:38:12 10° NW 22:40:49 12° NNW 22:43:19 10° N visible
22 Sep - 07:49:05 10° NNW 07:52:10 26° NNE 07:55:31 10° E visible
22 Sep - 09:36:38 10° W 09:40:21 39° SSW 09:44:46 10° SE daylight
22 Sep - 11:27:38 10° SW 11:29:39 12° SSW 11:31:50 10° S daylight
22 Sep - 15:08:33 10° S 15:10:58 12° SSE 15:13:28 10° SSE daylight
22 Sep - 16:55:05 10° SSW 17:01:26 27° SSE 17:08:11 10° ESE daylight
22 Sep - 18:43:09 10° SW 18:51:18 73° SSE 18:59:24 10° ENE daylight
22 Sep - 20:33:13 10° W 20:40:46 39° NNW 20:47:45 10° NE daylight
22 Sep - 22:29:29 10° NW 22:30:11 10° NNW 22:30:53 10° NNW visible
23 Sep - 07:38:21 10° NW 07:41:40 34° NNE 07:45:12 10° E visible
23 Sep - 09:26:29 10° W 09:29:54 30° SSW 09:33:52 10° SE daylight
23 Sep - 14:57:52 10° S 15:00:29 12° SSE 15:03:16 10° SE daylight
23 Sep - 16:44:16 10° SSW 16:50:45 30° SSE 16:57:45 10° E daylight
23 Sep - 18:32:22 10° WSW 18:40:28 83° SSE 18:48:42 10° ENE daylight
23 Sep - 20:22:42 10° W 20:29:57 34° NNW 20:36:48 10° NNE daylight
24 Sep - 07:27:42 10° NW 07:31:10 46° NNE 07:34:49 10° ESE visible
24 Sep - 09:16:26 10° WSW 09:19:29 23° SSW 09:22:54 10° SSE daylight
24 Sep - 14:47:08 10° S 14:50:00 13° SSE 14:53:04 10° SE daylight
24 Sep - 16:33:28 10° SW 16:40:01 34° SSE 16:47:15 10° E daylight
24 Sep - 18:21:39 10° WSW 18:29:38 86° NNW 18:37:55 10° ENE daylight
24 Sep - 20:12:17 10° W 20:19:10 29° NNW 20:25:47 10° NNE daylight
25 Sep - 07:17:06 10° NW 07:20:42 65° NNE 07:24:23 10° ESE visible
25 Sep - 09:06:29 10° WSW 09:09:04 18° SSW 09:11:53 10° SSE daylight
25 Sep - 14:36:22 10° S 14:39:30 14° SSE 14:42:52 10° SE daylight
25 Sep - 16:22:43 10° SW 16:29:17 38° SSE 16:36:42 10° E daylight
25 Sep - 18:11:00 10° WSW 18:18:47 75° NNW 18:27:04 10° NE daylight
25 Sep - 20:01:58 10° W 20:08:23 25° NNW 20:14:41 10° NNE daylight
26 Sep - 05:20:34 10° N 05:21:57 12° NNE 05:23:18 10° NE night (unlit)
26 Sep - 07:06:34 10° WNW 07:10:14 89° SSW 07:13:53 10° ESE visible
26 Sep - 08:56:45 10° SW 08:58:41 14° SSW 09:00:42 10° S daylight
26 Sep - 14:25:36 10° S 14:28:58 15° SSE 14:32:39 10° SE daylight
26 Sep - 16:12:00 10° SW 16:18:33 44° SSE 16:26:05 10° E daylight
26 Sep - 18:00:24 10° WSW 18:07:58 64° NNW 18:16:10 10° NE daylight
26 Sep - 19:51:47 10° WNW 19:57:38 21° NNW 20:03:29 10° NNE daylight
27 Sep - 05:08:56 10° NNW 05:11:31 16° NNE 05:13:54 10° ENE night (unlit)
27 Sep - 06:56:05 10° WNW 06:59:46 64° SSW 07:03:22 10° SE visible
27 Sep - 08:47:36 10° SSW 08:48:17 10° SSW 08:48:59 10° S daylight
27 Sep - 14:14:51 10° SSW 14:18:26 16° SSE 14:22:24 10° ESE daylight
27 Sep - 16:01:19 10° SW 16:07:47 50° SSE 16:15:24 10° ENE daylight
27 Sep - 17:49:53 10° WSW 17:57:09 55° NNW 18:05:11 10° NE daylight
27 Sep - 19:41:45 10° WNW 19:46:56 18° NNW 19:52:09 10° NNE daylight
28 Sep - 04:57:43 10° NNW 05:01:03 22° NNE 05:04:04 10° E night (unlit)
28 Sep - 06:45:38 10° WNW 06:49:19 46° SSW 06:52:48 10° SE visible
28 Sep - 14:04:07 10° SSW 14:07:53 17° SSE 14:12:06 10° ESE daylight
28 Sep - 15:50:41 10° SW 15:57:03 58° SSE 16:04:40 10° ENE daylight
28 Sep - 17:39:26 10° W 17:46:23 46° NNW 17:54:09 10° NE daylight
28 Sep - 19:31:56 10° WNW 19:36:15 15° NNW 19:40:40 10° N daylight
